星链-5797 (STARLINK-5797 )

导读

STARLINK-5797是美国SpaceX公司星链星座中的一颗低轨互联网卫星,于2023年3月3日发射入轨。星链项目旨在为全球提供高速宽带互联网服务,尤其填补偏远地区的网络覆盖空白。作为大规模星座的组成部分,该卫星运行在近地轨道,通过星间互联实现全球信号覆盖,助力SpaceX打造全球卫星互联网基础设施,持续推动太空互联网部署进程。

Basic Information
目录编号:
55784
目录名称:
STARLINK-5797
国际标识:
2023-028AV
轨道中心:
EARTH
卫星名称:
星链-5797
卫星全名:
星链-5797 (STARLINK-5797 )
卫星状态:
在轨 (已飞行1282 天)
发射日期:
2023-03-03 UTC
国别 :
美国 (US)
星等 :
--
Orbit Information
数据来源 国际轨道数据
星历时间: 2026-09-05T04:00:02+0800
6小时前
查看轨道信息
半长轴: 6950.154km
偏心率: 0.0002974
轨道倾角: 70.001°
近地点辐角 268.947°
升交点赤经 112.853°
平近点角 255.021°
近地点: 569.95km
远地点: 574.084km
周期: 96.106分钟
每日圈数: 14.983428
Detailed Information
固有亮度:
5
最大亮度:
2.5
卫星平台:
Starlink v1.5
覆盖范围:
全球
运营商:
太空探索技术公司
运营商所在国:
美国
制造商(研发单位):
太空探索技术公司
制造商所在国:
美国
使用方式:
暂无
Satellite Introduction
星链(Starlink)计划是由太空探索技术公司(SpaceX)提出的一个巨型低轨卫星互联网星座项目,计划在2019年至2024年间在太空搭建由约1.2万颗卫星组成的“星链”网络,其中1584颗将部署在地球上空550千米处的近地轨道,并从2020年开始工作。该卫星仍在工作。
2D Orbit Map
3D Orbit Map
Orbit Altitude Analysis Chart
Orbit Inclination Analysis Chart
Orbit Comprehensive Analysis Chart
View Comprehensive Chart
Conjunction Data List
Event ID Objects TCA Miss Dist (km) Collision Risk Probability Collision Risk Index (CRI) Action
CDM_260905-113905-566205-578422
2026-09-05T
11:39:44+0000
2.553 km
极远距离
8.885983E-7 极低风险 0.34